Weather History for KPGA - February, 2013

Change the Weather History Date:

Monday, February 18, 2013

  Actual Average Record
Temperature  
Mean Temperature 42 °F -  
Max Temperature 50 °F 51 °F 65 °F (1958)
Min Temperature 33 °F 31 °F 19 °F (1975)
Degree Days  
Heating Degree Days 24    
Moisture  
Dew Point 7 °F    
Average Humidity 24    
Maximum Humidity 38    
Minimum Humidity 5    
Precipitation  
Precipitation 0.00 in - - ()
Sea Level Pressure  
Sea Level Pressure 30.02 in    
Wind  
Wind Speed 6 mph (North)    
Max Wind Speed 12 mph    
Max Gust Speed 20 mph    
Visibility 10 miles    
Events      
Averages and records for this station are not official NWS values.
T = Trace of Precipitation, MM = Missing Value Source: NWS Daily Summary

Daily Weather History Graph

Daily Weather History Graph

Search for Another Location

Airport or City:

Trip Planner

Search our weather history database for the weather conditions in past years. The results will help you decide how hot, cold, wet, or windy it might be!

Date:

Astronomy

Feb. 18, 2013 Rise Set
Actual Time 7:10 AM MST 6:09 PM MST
Civil Twilight 6:43 AM MST 6:35 PM MST
Nautical Twilight 6:13 AM MST 7:06 PM MST
Astronomical Twilight 5:43 AM MST 7:36 PM MST
Moon 12:02 PM MST (2/18) 1:49 AM MST (2/18)
Length of Visible Light 11h 51m
Length of Day
10h 59m
First Quarter, 59% of the Moon is Illuminated
Feb 18
First Quarter
Feb 25
Full
Mar 4
Last Quarter
Mar 11
New
Mar 19
First Quarter

Hourly Weather History & Observations

Time (MST) Temp. Windchill Dew Point Humidity Pressure Visibility Wind Dir Wind Speed Gust Speed Precip Events Conditions
12:53 AM 42.1 °F 37.1 °F 18.0 °F 38% 29.92 in 10.0 mi WNW 8.1 mph - N/A   Clear
1:53 AM 41.0 °F 35.2 °F 17.1 °F 38% 29.95 in 10.0 mi West 9.2 mph - N/A   Clear
2:53 AM 39.9 °F 33.9 °F 14.0 °F 35% 29.96 in 10.0 mi WNW 9.2 mph - N/A   Clear
3:53 AM 39.0 °F 31.8 °F 10.9 °F 32% 29.94 in 10.0 mi WNW 11.5 mph 19.6 mph N/A   Clear
4:53 AM 36.0 °F 32.1 °F 9.0 °F 33% 29.98 in 10.0 mi SE 4.6 mph - N/A   Clear
5:53 AM 35.1 °F 32.2 °F 6.1 °F 30% 30.01 in 10.0 mi WSW 3.5 mph - N/A   Clear
6:53 AM 33.8 °F 30.8 °F 3.2 °F 28% 30.08 in 10.0 mi West 3.5 mph - N/A   Clear
7:53 AM 33.1 °F 27.7 °F 10.0 °F 38% 30.08 in 10.0 mi SSE 5.8 mph - N/A   Clear
8:53 AM 37.0 °F 34.5 °F 8.1 °F 30% 30.10 in 10.0 mi SE 3.5 mph - N/A   Clear
9:53 AM 41.0 °F - 7.0 °F 25% 30.11 in 10.0 mi Calm Calm - N/A   Clear
10:53 AM 43.0 °F 39.5 °F 8.1 °F 24% 30.11 in 10.0 mi North 5.8 mph - N/A   Clear
11:53 AM 45.0 °F 43.5 °F 3.9 °F 18% 30.10 in 10.0 mi Variable 3.5 mph - N/A   Clear
12:53 PM 46.9 °F - 3.9 °F 17% 30.07 in 10.0 mi NNE 9.2 mph - N/A   Clear
1:53 PM 48.0 °F - 3.0 °F 16% 30.04 in 10.0 mi NE 6.9 mph - N/A   Clear
2:53 PM 48.9 °F - 1.0 °F 14% 30.01 in 10.0 mi NE 10.4 mph - N/A   Clear
3:53 PM 50.0 °F - -0.4 °F 13% 30.03 in 10.0 mi NE 8.1 mph - N/A   Clear
4:53 PM 48.9 °F - -0.9 °F 13% 29.99 in 10.0 mi NNE 8.1 mph - N/A   Clear
5:53 PM 46.4 °F 43.5 °F -0.4 °F 14% 30.01 in 10.0 mi NNE 5.8 mph - N/A   Clear
6:53 PM 45.0 °F 43.5 °F 1.9 °F 17% 29.99 in 10.0 mi North 3.5 mph - N/A   Clear
7:53 PM 42.1 °F - 7.0 °F 24% 30.01 in 10.0 mi Calm Calm - N/A   Clear
8:53 PM 39.0 °F - 9.0 °F 29% 30.01 in 3.0 mi Calm Calm - N/A   Haze
9:53 PM 37.9 °F - 8.1 °F 29% 30.00 in 10.0 mi Calm Calm - N/A   Clear
10:53 PM 36.0 °F - 9.0 °F 33% 29.99 in 10.0 mi Calm Calm - N/A   Clear
11:53 PM 36.0 °F - 8.1 °F 31% 29.98 in 10.0 mi Calm Calm - N/A   Clear